WX4MMM Weather Reports


Display with metric or nautical units.
time (UTC)temp
F
wind
direction
speed
MPH
gust
MPH
rain 1hr
in
rain 24hr
in
rain mn
in
humidity
%
barometer
mb
20260831163004 88 187 1.0 3.0 0.00 0.00 0.00 61 1019.0
20260831162504 89 351 0.0 2.0 0.00 0.00 0.00 63 1019.2
20260831162003 89 306 0.0 2.0 0.00 0.00 0.00 64 1019.3
20260831161503 88 357 1.0 2.0 0.00 0.00 0.00 63 1019.3
20260831161004 88 37 0.0 2.0 0.00 0.00 0.00 67 1019.3
20260831160503 87 350 1.0 3.0 0.00 0.00 0.00 66 1019.3
20260831160003 87 191 0.0 2.0 0.00 0.00 0.00 67 1019.4
20260831155503 86 94 1.0 2.0 0.00 0.00 0.00 65 1019.4
20260831155003 86 292 1.0 3.0 0.00 0.00 0.00 68 1019.4
20260831154004 87 112 1.0 3.0 0.00 0.00 0.00 70 1019.5
20260831153503 86 134 0.0 3.0 0.00 0.00 0.00 69 1019.6
20260831153003 86 343 1.0 2.0 0.00 0.00 0.00 72 1019.6
20260831151503 84 164 1.0 3.0 0.00 0.00 0.00 70 1019.7
20260831151005 84 129 2.0 3.0 0.00 0.00 0.00 74 1019.7
20260831150505 84 13 1.0 3.0 0.00 0.00 0.00 76 1019.7
20260831150003 84 176 1.0 3.0 0.00 0.00 0.00 74 1019.6
20260831145504 83 155 0.0 3.0 0.00 0.00 0.00 76 1019.7
20260831144004 82 52 2.0 3.0 0.00 0.00 0.00 76 1019.7
20260831143504 82 329 1.0 2.0 0.00 0.00 0.00 78 1019.7
20260831143004 81 51 1.0 3.0 0.00 0.00 0.00 81 1019.6
20260831142503 81 132 2.0 3.0 0.00 0.00 0.00 79 1019.6
20260831142004 81 1 1.0 2.0 0.00 0.00 0.00 80 1019.5
20260831141504 80 131 1.0 3.0 0.00 0.00 0.00 80 1019.5
20260831141004 80 95 1.0 2.0 0.00 0.00 0.00 82 1019.6
20260831140503 79 47 2.0 5.0 0.00 0.00 0.00 82 1019.5
20260831140004 79 85 1.0 3.0 0.00 0.00 0.00 85 1019.5
20260831135504 78 57 1.0 3.0 0.00 0.00 0.00 86 1019.5
20260831135004 77 3 2.0 5.0 0.00 0.00 0.00 88 1019.5
20260831134503 77 130 1.0 3.0 0.00 0.00 0.00 89 1019.5
20260831134004 76 38 1.0 1.0 0.00 0.00 0.00 92 1019.5
20260831133504 76 332 1.0 2.0 0.00 0.00 0.00 92 1019.5
20260831133004 75 136 1.0 2.0 0.00 0.00 0.00 93 1019.5
20260831132503 74 145 2.0 2.0 0.00 0.00 0.00 97 1019.5
20260831132004 74 140 2.0 2.0 0.00 0.00 0.00 99 1019.5
20260831131504 74 46 0.0 1.0 0.00 0.00 0.00 100 1019.5
20260831130504 73 113 1.0 2.0 0.00 0.00 0.00 100 1019.5
20260831130004 73 173 2.0 2.0 0.00 0.00 0.00 100 1019.6
20260831125503 72 95 1.0 2.0 0.00 0.00 0.00 100 1019.6
20260831125005 72 188 1.0 1.0 0.00 0.00 0.00 100 1019.6
20260831124503 71 115 1.0 1.0 0.00 0.00 0.00 100 1019.6
20260831124004 71 136 1.0 2.0 0.00 0.00 0.00 100 1019.6
20260831123503 70 100 0.0 1.0 0.00 0.00 0.00 100 1019.6
20260831123004 70 103 0.0 0.0 0.00 0.00 0.00 100 1019.6
20260831122005 69 103 0.0 0.0 0.00 0.00 0.00 100 1019.5
20260831121504 69 111 0.0 1.0 0.00 0.00 0.00 100 1019.5
20260831121004 68 180 0.0 1.0 0.00 0.00 0.00 100 1019.5
20260831120004 68 208 0.0 0.0 0.00 0.00 0.00 100 1019.5
20260831115503 68 208 0.0 0.0 0.00 0.00 0.00 100 1019.6
20260831115004 68 208 0.0 0.0 0.00 0.00 0.00 100 1019.6
20260831114504 67 208 0.0 0.0 0.00 0.00 0.00 100 1019.6
20260831114005 67 208 0.0 1.0 0.00 0.00 0.00 100 1019.6
20260831113005 67 252 0.0 0.0 0.00 0.00 0.00 100 1019.7
20260831112503 67 252 0.0 0.0 0.00 0.00 0.00 100 1019.6
20260831112004 67 252 0.0 0.0 0.00 0.00 0.00 99 1019.5
20260831111504 67 252 0.0 0.0 0.00 0.00 0.00 99 1019.5
20260831110504 67 252 0.0 0.0 0.00 0.00 0.00 99 1019.5
20260831110004 67 201 0.0 1.0 0.00 0.00 0.00 99 1019.4
20260831105505 67 190 0.0 1.0 0.00 0.00 0.00 99 1019.4
20260831105004 67 186 0.0 0.0 0.00 0.00 0.00 99 1019.3
20260831104504 67 185 0.0 1.0 0.00 0.00 0.00 99 1019.3
20260831103504 67 190 0.0 0.0 0.00 0.00 0.00 99 1019.2
20260831103005 67 190 1.0 1.0 0.00 0.00 0.00 99 1019.2
20260831102505 67 254 0.0 1.0 0.00 0.00 0.00 99 1019.2
20260831102004 67 294 0.0 0.0 0.00 0.00 0.00 99 1019.1
20260831101503 67 331 0.0 0.0 0.00 0.00 0.00 99 1019.1
20260831101004 67 331 0.0 1.0 0.00 0.00 0.00 99 1019.1
20260831100505 67 317 0.0 0.0 0.00 0.00 0.00 99 1019.1
20260831100004 67 317 0.0 1.0 0.00 0.00 0.00 99 1019.1
20260831095504 67 309 0.0 1.0 0.00 0.00 0.00 99 1019.1
20260831094503 67 323 0.0 0.0 0.00 0.00 0.00 99 1019.1
20260831093004 67 357 0.0 0.0 0.00 0.00 0.00 99 1019.0
20260831092504 67 356 0.0 1.0 0.00 0.00 0.00 99 1019.0
20260831092003 67 296 0.0 0.0 0.00 0.00 0.00 99 1019.0
20260831091504 67 296 0.0 0.0 0.00 0.00 0.00 99 1019.0
20260831090505 68 296 0.0 0.0 0.00 0.00 0.00 99 1018.9
20260831090004 68 296 0.0 1.0 0.00 0.00 0.00 99 1018.9
20260831085504 68 224 0.0 0.0 0.00 0.00 0.00 99 1018.9
20260831085005 68 224 0.0 0.0 0.00 0.00 0.00 99 1018.9
20260831084504 68 222 0.0 1.0 0.00 0.00 0.00 99 1019.0
20260831083503 68 320 0.0 0.0 0.00 0.00 0.00 99 1019.1
20260831083004 68 320 0.0 0.0 0.00 0.00 0.00 99 1019.0
20260831082503 68 320 0.0 0.0 0.00 0.00 0.00 99 1019.0
20260831082004 68 320 0.0 0.0 0.00 0.00 0.00 99 1018.9
20260831081503 68 320 0.0 0.0 0.00 0.00 0.00 99 1019.0
20260831081003 68 320 0.0 0.0 0.00 0.00 0.00 99 1019.0
20260831080505 68 320 0.0 0.0 0.00 0.00 0.00 99 1019.0
20260831080003 69 320 0.0 0.0 0.00 0.00 0.00 99 1019.1
20260831075504 68 315 0.0 1.0 0.00 0.00 0.00 99 1019.1
20260831075004 68 306 0.0 1.0 0.00 0.00 0.00 99 1019.1
20260831074503 68 240 0.0 0.0 0.00 0.00 0.00 99 1019.1
20260831073503 69 215 0.0 0.0 0.00 0.00 0.00 99 1019.2
20260831073005 69 215 0.0 1.0 0.00 0.00 0.00 99 1019.2
20260831072504 69 192 0.0 0.0 0.00 0.00 0.00 99 1019.2
20260831072004 69 192 0.0 0.0 0.00 0.00 0.00 99 1019.3
20260831071004 69 192 0.0 0.0 0.00 0.00 0.00 99 1019.3
20260831070503 69 192 0.0 0.0 0.00 0.00 0.00 99 1019.2
20260831065505 69 192 0.0 1.0 0.00 0.00 0.00 99 1019.3
20260831065004 69 215 0.0 0.0 0.00 0.00 0.00 99 1019.4
20260831064004 69 172 0.0 0.0 0.00 0.00 0.00 99 1019.5
20260831063503 69 172 0.0 0.0 0.00 0.00 0.00 99 1019.6
20260831063003 69 172 0.0 0.0 0.00 0.00 0.00 99 1019.5
20260831062504 69 172 0.0 0.0 0.00 0.00 0.00 99 1019.5
20260831062003 69 172 0.0 0.0 0.00 0.00 0.00 99 1019.4
20260831061504 69 172 0.0 0.0 0.00 0.00 0.00 99 1019.3
20260831060504 69 172 0.0 0.0 0.00 0.00 0.00 99 1019.4
20260831060003 69 172 0.0 1.0 0.00 0.00 0.00 99 1019.5
20260831055504 70 115 0.0 1.0 0.00 0.00 0.00 99 1019.5
20260831054505 70 166 0.0 0.0 0.00 0.00 0.00 99 1019.5
20260831054004 70 166 0.0 0.0 0.00 0.00 0.00 99 1019.5
20260831053504 70 166 0.0 0.0 0.00 0.00 0.00 99 1019.4
20260831053006 70 166 0.0 0.0 0.00 0.00 0.00 99 1019.4
20260831052504 70 166 0.0 0.0 0.00 0.00 0.00 99 1019.4
20260831052004 70 166 1.0 1.0 0.00 0.00 0.00 99 1019.4
20260831051504 70 207 0.0 0.0 0.00 0.00 0.00 99 1019.4
20260831051004 70 189 0.0 0.0 0.00 0.00 0.00 98 1019.5
20260831050504 70 187 0.0 1.0 0.00 0.00 0.00 98 1019.5
20260831050004 70 199 0.0 0.0 0.00 0.00 0.00 98 1019.5
20260831045503 70 199 0.0 0.0 0.00 0.00 0.00 98 1019.6
20260831045004 70 199 0.0 1.0 0.00 0.00 0.00 98 1019.6
20260831043504 70 204 0.0 0.0 0.00 0.00 0.00 98 1019.6
20260831043004 71 204 0.0 0.0 0.00 0.00 0.00 98 1019.6
20260831042504 71 204 0.0 0.0 0.00 0.00 0.00 98 1019.7
20260831042003 71 204 0.0 0.0 0.00 0.00 0.00 98 1019.7
20260831041505 71 204 0.0 0.0 0.00 0.00 0.00 98 1019.7
20260831041004 71 204 0.0 0.0 0.00 0.00 0.00 98 1019.7
20260831040005 71 173 0.0 0.0 0.00 0.28 0.00 98 1019.6
20260831035504 71 173 0.0 0.0 0.00 0.28 0.00 98 1019.6
20260831035004 71 173 0.0 0.0 0.00 0.28 0.00 98 1019.6
20260831034504 71 173 0.0 0.0 0.00 0.28 0.00 98 1019.6
20260831034004 71 173 0.0 0.0 0.00 0.28 0.00 98 1019.6
20260831033504 71 173 0.0 0.0 0.00 0.28 0.00 98 1019.6
20260831033004 71 173 0.0 0.0 0.00 0.28 0.00 98 1019.6
20260831032504 71 173 0.0 0.0 0.00 0.28 0.00 98 1019.6
20260831032005 72 173 0.0 0.0 0.00 0.28 0.00 98 1019.6
20260831031504 72 173 0.0 1.0 0.00 0.28 0.00 98 1019.6
20260831031004 72 111 0.0 0.0 0.00 0.28 0.00 98 1019.6
20260831030503 72 111 0.0 1.0 0.00 0.28 0.00 98 1019.7
20260831030004 72 130 0.0 0.0 0.00 0.28 0.00 98 1019.8
20260831025506 72 104 0.0 0.0 0.00 0.28 0.00 97 1019.8
20260831025006 72 104 0.0 0.0 0.00 0.28 0.00 97 1019.8
20260831024504 72 330 0.0 0.0 0.00 0.28 0.00 97 1019.9
20260831024005 72 336 0.0 1.0 0.00 0.28 0.00 97 1019.8
20260831023503 73 38 0.0 1.0 0.00 0.28 0.00 97 1019.8
20260831023003 73 22 1.0 1.0 0.00 0.28 0.00 97 1019.9
20260831022503 73 260 0.0 1.0 0.00 0.28 0.00 97 1019.8
20260831022004 73 131 0.0 0.0 0.00 0.28 0.00 97 1019.8
20260831021504 73 131 0.0 0.0 0.00 0.28 0.00 97 1019.8
20260831021003 73 131 0.0 0.0 0.00 0.28 0.00 97 1019.8
20260831020504 73 131 0.0 0.0 0.00 0.28 0.00 97 1019.7
20260831020003 73 131 0.0 0.0 0.00 0.28 0.00 97 1019.6
20260831015503 73 118 0.0 1.0 0.00 0.28 0.00 97 1019.7
20260831015005 73 198 0.0 0.0 0.00 0.28 0.00 96 1019.7
20260831014504 74 198 0.0 0.0 0.00 0.28 0.00 96 1019.6
20260831014003 74 198 0.0 0.0 0.00 0.28 0.00 96 1019.6
20260831013504 74 198 0.0 0.0 0.00 0.28 0.00 96 1019.6
20260831013004 74 198 0.0 0.0 0.00 0.28 0.00 96 1019.5
20260831012503 74 234 0.0 0.0 0.00 0.28 0.00 96 1019.5
20260831012006 74 234 0.0 0.0 0.00 0.28 0.00 96 1019.5
20260831011503 74 207 0.0 1.0 0.00 0.28 0.00 95 1019.4
20260831011003 75 199 0.0 0.0 0.00 0.28 0.00 95 1019.5
20260831010504 75 237 0.0 0.0 0.00 0.28 0.00 95 1019.4
20260831010003 75 293 0.0 1.0 0.00 0.28 0.00 95 1019.4
20260831005004 75 52 0.0 1.0 0.00 0.28 0.00 95 1019.5
20260831004504 75 22 1.0 1.0 0.00 0.28 0.00 94 1019.5
20260831004005 76 237 0.0 1.0 0.00 0.28 0.00 94 1019.4
20260831003503 76 295 0.0 1.0 0.00 0.28 0.00 93 1019.3
20260831003003 76 271 0.0 1.0 0.00 0.28 0.00 93 1019.3
20260831002504 76 285 0.0 1.0 0.00 0.28 0.00 92 1019.3
20260831002007 76 29 0.0 1.0 0.00 0.28 0.00 92 1019.3
20260831001504 77 338 0.0 3.0 0.00 0.28 0.00 92 1019.2
20260831001004 77 285 0.0 1.0 0.00 0.28 0.00 91 1019.2
20260831000504 77 66 0.0 1.0 0.00 0.28 0.00 90 1019.2
20260831000002 78 312 0.0 1.0 0.00 0.28 0.00 90 1019.2
20260830235503 78 305 0.0 1.0 0.00 0.28 0.00 89 1019.1
20260830235003 78 170 0.0 1.0 0.00 0.28 0.00 88 1019.1
20260830234504 79 135 0.0 1.0 0.00 0.28 0.00 87 1019.2
20260830234004 79 133 0.0 1.0 0.00 0.28 0.00 86 1019.3
20260830233503 79 350 0.0 1.0 0.00 0.28 0.00 85 1019.3
20260830232503 80 320 0.0 1.0 0.00 0.28 0.00 83 1019.4
20260830232004 80 335 0.0 1.0 0.00 0.28 0.00 81 1019.5
20260830231503 81 175 0.0 1.0 0.00 0.28 0.00 81 1019.5
20260830231003 81 20 0.0 1.0 0.00 0.28 0.00 81 1019.4
20260830230503 81 47 0.0 1.0 0.00 0.28 0.00 79 1019.5
20260830230004 81 101 0.0 1.0 0.00 0.28 0.00 80 1019.5
20260830225503 82 50 0.0 0.0 0.00 0.28 0.00 80 1019.5
20260830225003 82 350 0.0 1.0 0.00 0.28 0.00 77 1019.5
20260830224004 82 337 0.0 1.0 0.00 0.28 0.00 78 1019.4
20260830223503 82 315 0.0 1.0 0.00 0.28 0.00 79 1019.4
20260830223004 82 328 0.0 1.0 0.00 0.28 0.00 78 1019.3
20260830222503 82 179 0.0 1.0 0.00 0.28 0.00 76 1019.2
20260830222003 83 7 0.0 1.0 0.00 0.28 0.00 78 1019.2
20260830221503 83 231 0.0 1.0 0.00 0.28 0.00 76 1019.3
20260830220503 82 236 0.0 1.0 0.00 0.28 0.00 75 1019.4
20260830215503 83 203 0.0 1.0 0.00 0.28 0.00 76 1019.3
20260830215004 83 327 0.0 1.0 0.00 0.28 0.00 76 1019.3
20260830214505 83 155 0.0 2.0 0.00 0.28 0.00 76 1019.3
20260830214003 83 300 0.0 1.0 0.00 0.28 0.00 73 1019.4
20260830213503 83 308 0.0 1.0 0.00 0.28 0.00 76 1019.4
20260830212004 84 127 0.0 1.0 0.00 0.28 0.00 74 1019.4
20260830210504 84 30 0.0 1.0 0.00 0.28 0.00 70 1019.2
20260830210003 85 101 0.0 2.0 0.00 0.28 0.00 69 1019.2
20260830205504 85 308 1.0 2.0 0.00 0.28 0.00 68 1019.2
20260830205003 85 328 1.0 1.0 0.00 0.28 0.00 71 1019.3
20260830204504 85 320 0.0 1.0 0.00 0.28 0.00 68 1019.4
20260830204003 85 49 1.0 1.0 0.00 0.28 0.00 72 1019.4
20260830203504 85 238 0.0 2.0 0.00 0.28 0.00 74 1019.5
20260830203003 85 340 1.0 2.0 0.00 0.28 0.00 68 1019.5
20260830202505 85 275 0.0 1.0 0.00 0.28 0.00 70 1019.5
20260830202003 84 230 1.0 2.0 0.00 0.28 0.00 68 1019.5
20260830201003 83 187 1.0 2.0 0.00 0.28 0.00 73 1019.6
20260830200508 83 186 2.0 3.0 0.00 0.28 0.00 72 1019.7
20260830200003 83 271 0.0 3.0 0.00 0.28 0.00 75 1019.8
20260830195503 84 219 0.0 2.0 0.00 0.28 0.00 71 1019.9
20260830194503 85 216 0.0 2.0 0.00 0.28 0.00 72 1020.0
20260830194005 85 183 0.0 1.0 0.00 0.28 0.00 70 1020.1
20260830193504 85 30 0.0 1.0 0.00 0.28 0.00 72 1020.1
20260830193004 85 215 0.0 2.0 0.00 0.28 0.00 72 1020.2
20260830192503 85 316 1.0 2.0 0.00 0.28 0.00 70 1020.2
20260830192003 85 55 1.0 2.0 0.00 0.40 0.00 70 1020.3
20260830191005 84 18 1.0 2.0 0.00 0.40 0.00 70 1020.3
20260830190508 84 296 2.0 3.0 0.00 0.40 0.00 70 1020.3
20260830190005 83 271 1.0 2.0 0.00 0.40 0.00 72 1020.3
20260830185507 83 295 1.0 2.0 0.00 0.40 0.00 74 1020.4
20260830185003 83 41 1.0 2.0 0.00 0.40 0.00 70 1020.5
20260830184504 83 178 1.0 2.0 0.00 0.40 0.00 71 1020.5
20260830184004 83 330 1.0 2.0 0.00 0.40 0.00 72 1020.5
20260830183503 83 6 1.0 2.0 0.00 0.42 0.00 73 1020.7
20260830183004 84 142 0.0 2.0 0.00 0.50 0.00 71 1020.7
20260830182003 83 26 1.0 2.0 0.00 0.56 0.00 70 1020.9
20260830181003 83 173 2.0 3.0 0.00 0.56 0.00 75 1021.0
20260830180504 82 160 1.0 2.0 0.00 0.56 0.00 72 1021.1
20260830180003 82 41 1.0 2.0 0.00 0.56 0.00 74 1021.2
20260830175503 83 30 1.0 3.0 0.00 0.56 0.00 73 1021.2
20260830175004 83 246 1.0 3.0 0.00 0.56 0.00 72 1021.2
20260830174503 82 317 1.0 2.0 0.00 0.56 0.00 73 1021.1
20260830174003 82 70 0.0 2.0 0.00 0.56 0.00 77 1021.1
20260830173504 82 169 2.0 3.0 0.00 0.56 0.00 74 1021.1
20260830173003 82 302 1.0 3.0 0.00 0.56 0.00 74 1021.2
20260830172503 81 38 0.0 1.0 0.00 0.56 0.00 76 1021.2
20260830172004 81 249 0.0 2.0 0.00 0.56 0.00 75 1021.3
20260830171504 81 315 0.0 2.0 0.00 0.56 0.00 78 1021.3
20260830171003 81 313 1.0 3.0 0.00 0.56 0.00 79 1021.4
20260830170503 81 184 1.0 3.0 0.00 0.56 0.00 77 1021.5
20260830170003 80 337 0.0 1.0 0.00 0.56 0.00 78 1021.6
20260830165505 80 22 0.0 2.0 0.00 0.56 0.00 79 1021.6
20260830165003 80 12 0.0 1.0 0.00 0.56 0.00 80 1021.7
20260830164503 80 354 1.0 2.0 0.00 0.56 0.00 78 1021.7
20260830164004 80 325 1.0 2.0 0.00 0.56 0.00 79 1021.8
20260830163503 80 167 0.0 2.0 0.00 0.56 0.00 79 1021.8